DELTA 1 DEB, 42080

Orbit data source: Space-Track

DELTA 1 DEB, 42080 is space debris in SSO originally from a launch on Sun, 15 Dec 1968 UTC launched from the Air Force Western Test Range (AFWTR). Debris objects in space refer to the collection of defunct objects orbiting the Earth. Examples of debris include non-operational satellites, rocket bodies, and fragments generated from explosions, collisions, or faulty payload assembly.

Loading next visibility...
Identifier
42080, 1968-114G
Orbit
SSO
Country
Flag of USUS
Related business
Manufacturer
Aerojet
Mission
Spacecraft
Bus & Motor
Unknown
Mass
Unknown
Launch date (UTC)
1968-12-15 (57 years ago)
Launch vehicle
Unknown
Launch site
Air Force Western Test Range (AFWTR)
Object type
Payload
Rocket body
Debris
Shape & HBR
Unknown shape, 0.1 m
Radar Cross Section
Small (<0.1 m²)

Expand to show TLE details & history
Last TLE update: 4 days ago

TLE from 4 days ago
0 DELTA 1 DEB
1 42080U 68114G   25289.59035873 -.00000034  00000-0  74559-4 0  9992
2 42080 101.8012 224.3616 0067424 308.4431 238.7737 12.39294052538436
Epoch: 2025-10-16T14:10Z
TLE epoch observation values (Epoch: 2025-10-16T14:10:06.994Z)
Latitude
-6.55895°
Longitude
165.11473°
Altitude
1,541.08 km
Speed
7.083 km/s
True Right ascension
02h 51m 58s
True Declination
-6° 31' 26"
Sunlit
Object was in full shadow at epoch
Visualization orbit readout
Latitude
Unknown
Longitude
Unknown
Altitude
Unknown
Speed
Unknown
Apparent Right ascension
Unknown
Apparent Declination
Unknown
Sunlit
N/A
Visualization observer readout
Local Sidereal Time
14:08:47
Azimuth
Unknown
Elevation
Unknown
Doppler factor
Unknown
Orbital elements
Apogee altitude
1,560.327 km
Perigee altitude
1,453.995 km
Semi-major axis
7,885.298 km
Eccentricity
0.00674
Inclination
101.8012°
RAAN
224.3616°
Arg. of periapsis
308.4431°
True anomaly
238.1159°
Mean anomaly
238.7737°
Eccentric anomaly
238.44451°
Mean motion
3.09967 °/min
Orbital period
116.14 mins
BSTAR
0.000074559
Loading maneuver chart data...
Computing Atmospheric mass density...
Loading historical data...
Loading historical data...
Loading historical data...
Loading historical data...
Loading historical data...
Loading historical data...
Loading historical data...

Documentation

Showing up to 5 results
|